Fort-de-France, Martinique

11:00 AM AST on June 25, 2018 (GMT -0400)
Fort-de-France

Weather History for 78925 - December, 2003

Change the Weather History Date:

Friday, December 19, 2003

  Actual Average Record
Temperature  
Mean Temperature 80 °F -  
Max Temperature 86 °F 83 °F - ()
Min Temperature 73 °F 71 °F - ()
Cooling Degree Days 14    
Growing Degree Days 30 (Base 50)    
Moisture  
Dew Point 68 °F    
Average Humidity 73    
Maximum Humidity 89    
Minimum Humidity 48    
Precipitation  
Precipitation 0.00 in 0.18 in - ()
Sea Level Pressure  
Sea Level Pressure 29.99 in    
Wind  
Wind Speed 5 mph ()    
Max Wind Speed 16 mph    
Max Gust Speed -    
Visibility 6.2 miles    
Events Rain    
T = Trace of Precipitation, MM = Missing Value Source: Averaged Metar Reports

Daily Weather History Graph

Daily Weather History Graph

Search for Another Location

Airport or City:

Astronomy

Dec. 19, 2003 Rise Set
Actual Time 6:23 AM AST 5:38 PM AST
Civil Twilight 5:59 AM AST 6:02 PM AST
Nautical Twilight 5:32 AM AST 6:29 PM AST
Astronomical Twilight 5:06 AM AST 6:55 PM AST
Moon 2:16 AM AST (12/19) 2:16 PM AST (12/19)
Length of Visible Light 12h 02m
Length of Day
11h 15m
Waning Crescent, 19% of the Moon is Illuminated
Dec 19
Waning Crescent
Dec 23
New
Dec 30
First Quarter
Jan 7
Full
Jan 15
Last Quarter

Hourly Weather History & Observations

Time (AST) Temp. Heat Index Dew Point Humidity Pressure Visibility Wind Dir Wind Speed Gust Speed Precip Events Conditions
12:00 AM 75.2 °F - 69.8 °F 83% 30.01 in 6.2 mi NE 2.3 mph - N/A   Scattered Clouds
1:00 AM 75.2 °F - 69.8 °F 83% 29.98 in 6.2 mi NNE 1.2 mph - N/A   Scattered Clouds
2:00 AM 77.0 °F - 71.6 °F 83% 29.95 in 6.2 mi ENE 2.3 mph - N/A   Scattered Clouds
3:00 AM 75.2 °F - 71.6 °F 89% 29.95 in 6.2 mi Variable 2.3 mph - N/A   Partly Cloudy
4:00 AM 75.2 °F - 69.8 °F 83% 29.95 in 6.2 mi Calm Calm - N/A Rain Light Rain Showers
5:00 AM 73.4 °F - 69.8 °F 88% 29.98 in 6.2 mi ESE 3.5 mph - N/A   Partly Cloudy
6:00 AM 73.4 °F - 69.8 °F 88% 29.98 in 6.2 mi SE 1.2 mph - N/A   Scattered Clouds
7:00 AM 75.2 °F - 69.8 °F 83% 30.01 in 6.2 mi ESE 2.3 mph - N/A   Scattered Clouds
8:00 AM 80.6 °F 83.9 °F 69.8 °F 70% 30.04 in 6.2 mi ESE 8.1 mph - N/A   Scattered Clouds
9:00 AM 82.4 °F 85.4 °F 68.0 °F 62% 30.06 in 6.2 mi East 12.7 mph - N/A   Scattered Clouds
10:00 AM 84.2 °F 86.6 °F 66.2 °F 55% 30.06 in 6.2 mi ESE 13.8 mph - N/A   Partly Cloudy
11:00 AM 84.2 °F 87.3 °F 68.0 °F 58% 30.04 in 6.2 mi East 16.1 mph - N/A   Partly Cloudy
12:00 PM 86.0 °F 88.2 °F 66.2 °F 51% 30.01 in 6.2 mi East 16.1 mph - N/A   Partly Cloudy
1:16 PM 86.0 °F 87.3 °F 64.4 °F 48% 29.98 in 6.2 mi ESE 16.1 mph - N/A   Scattered Clouds
2:00 PM 84.2 °F 86.6 °F 66.2 °F 55% 29.95 in 6.2 mi East 15.0 mph - N/A   Scattered Clouds
4:00 PM 82.4 °F 84.6 °F 66.2 °F 58% 29.95 in 6.2 mi East 11.5 mph - N/A   Partly Cloudy
5:00 PM 80.6 °F 82.7 °F 66.2 °F 61% 29.98 in 6.2 mi ESE 9.2 mph - N/A   Partly Cloudy
6:00 PM 77.0 °F - 68.0 °F 74% 29.98 in 6.2 mi East 1.2 mph - N/A   Partly Cloudy
7:00 PM 77.0 °F - 68.0 °F 74% 29.98 in 6.2 mi East 4.6 mph - N/A   Partly Cloudy
8:00 PM 77.0 °F - 68.0 °F 74% 30.01 in 6.2 mi ESE 4.6 mph - N/A   Partly Cloudy
9:00 PM 75.2 °F - 68.0 °F 78% 30.01 in 6.2 mi East 3.5 mph - N/A   Partly Cloudy
10:00 PM 75.2 °F - 69.8 °F 83% 30.01 in 6.2 mi NE 1.2 mph - N/A   Partly Cloudy
11:00 PM 73.4 °F - 69.8 °F 88% 30.01 in 6.2 mi SE 1.2 mph - N/A   Partly Cloudy